Simultaneous Nadir Overpasses (SNOs) Predictions

Prediction of SNOs between GOES-15 and NOAA-20 Satellite Orbit:

Table of predicted SNOs for the next 14.0 days since TLE Epoch: 7/15/2023
Index Date Time (GOES-15) GOES-15 Lat,Lon NOAA-20 Lat,Lon Distance(km) Time Diff (sec)
1 07/15/2023 13:29:46 -0.28, 176.83 -0.65, 178.57 197.80 80
2 07/17/2023 01:54:29 0.32, 175.26 -0.16, 173.17 238.36 80
3 07/18/2023 01:33:08 0.29, 174.26 1.03, 177.66 387.53 80
4 07/19/2023 13:57:42 -0.33, 172.73 -0.22, 172.31 48.59 80
5 07/21/2023 02:19:45 0.36, 171.17 -0.58, 166.91 485.01 80
6 07/22/2023 01:58:24 0.33, 170.17 0.61, 171.40 140.93 80
7 07/23/2023 14:22:58 -0.36, 168.64 0.19, 166.05 294.89 80
8 07/24/2023 14:01:37 -0.33, 167.64 -1.00, 170.53 330.68 80
9 07/26/2023 02:26:19 0.37, 166.08 0.16, 165.15 105.95 80
10 07/28/2023 14:26:52 -0.38, 163.56 -0.55, 164.28 82.73 80
